{"data":{"norad_id":48479,"epoch":"2026-09-19T23:46:57.203040Z","epoch_age_seconds":81261,"freshness":"FRESH","line1":"1 48479U 21040BD  26262.99093985  .00015519  00000+0  51059-3 0  9992","line2":"2 48479  53.1585   7.1410 0001622  69.2297 290.8878 15.31714756296267","mean_motion":15.31714756,"eccentricity":0.0001622,"inclination_deg":53.1585,"raan_deg":7.141,"arg_perigee_deg":69.2297,"mean_anomaly_deg":290.8878,"bstar":0.00051059,"rev_number":29626,"period_min":94.012282271178,"perigee_km":469.5851279966,"apogee_km":471.80688942463,"semimajor_km":6848.8330087106,"source":"CELESTRAK","updated_at":"2026-09-20T09:00:39.130681Z"}}